Year,Month,Day,Hour,Minute,Value (Times are PST for temperature in C)
2014,08,12,00,00,18.20
2014,08,12,00,01,18.20
2014,08,12,00,02,18.20
2014,08,12,00,03,18.20
2014,08,12,00,04,18.20
2014,08,12,00,05,18.20
2014,08,12,00,06,18.20
2014,08,12,00,07,18.20
2014,08,12,00,08,18.20
2014,08,12,00,09,18.20
2014,08,12,00,10,18.10
2014,08,12,00,11,18.10
2014,08,12,00,12,18.10
2014,08,12,00,13,18.10
2014,08,12,00,14,18.10
2014,08,12,00,15,18.00
2014,08,12,00,16,17.90
2014,08,12,00,17,17.90
2014,08,12,00,18,17.90
2014,08,12,00,19,17.90
2014,08,12,00,20,17.90
2014,08,12,00,21,17.90
2014,08,12,00,22,17.90
2014,08,12,00,23,17.90
2014,08,12,00,24,17.90
2014,08,12,00,25,17.90
2014,08,12,00,26,17.90
2014,08,12,00,27,17.90
2014,08,12,00,28,17.90
2014,08,12,00,29,17.90
2014,08,12,00,30,17.90
2014,08,12,00,31,17.90
2014,08,12,00,32,17.90
2014,08,12,00,33,17.90
2014,08,12,00,34,17.90
2014,08,12,00,35,17.90
2014,08,12,00,36,17.90
2014,08,12,00,37,17.80
2014,08,12,00,38,17.80
2014,08,12,00,39,17.80
2014,08,12,00,40,17.80
2014,08,12,00,41,17.70
2014,08,12,00,42,17.70
2014,08,12,00,43,17.70
2014,08,12,00,44,17.70
2014,08,12,00,45,17.60
2014,08,12,00,46,17.60
2014,08,12,00,47,17.60
2014,08,12,00,48,17.60
2014,08,12,00,49,17.60
2014,08,12,00,50,17.60
2014,08,12,00,51,17.60
2014,08,12,00,52,17.70
2014,08,12,00,53,17.70
2014,08,12,00,54,17.70
2014,08,12,00,55,17.70
2014,08,12,00,56,17.70
2014,08,12,00,57,17.60
2014,08,12,00,58,17.60
2014,08,12,00,59,17.50
2014,08,12,01,00,17.50
2014,08,12,01,01,17.50
2014,08,12,01,02,17.40
2014,08,12,01,03,17.40
2014,08,12,01,04,17.30
2014,08,12,01,05,17.30
2014,08,12,01,06,17.30
2014,08,12,01,07,17.30
2014,08,12,01,08,17.30
2014,08,12,01,09,17.30
2014,08,12,01,10,17.30
2014,08,12,01,11,17.30
2014,08,12,01,12,17.30
2014,08,12,01,13,17.30
2014,08,12,01,14,17.30
2014,08,12,01,15,17.40
2014,08,12,01,16,17.40
2014,08,12,01,17,17.50
2014,08,12,01,18,17.50
2014,08,12,01,19,17.60
2014,08,12,01,20,17.60
2014,08,12,01,21,17.60
2014,08,12,01,22,17.70
2014,08,12,01,23,17.70
2014,08,12,01,24,17.70
2014,08,12,01,25,17.70
2014,08,12,01,26,17.70
2014,08,12,01,27,17.80
2014,08,12,01,28,17.80
2014,08,12,01,29,17.80
2014,08,12,01,30,17.80
2014,08,12,01,31,17.80
2014,08,12,01,32,17.90
2014,08,12,01,33,17.90
2014,08,12,01,34,17.80
2014,08,12,01,35,17.80
2014,08,12,01,36,17.70
2014,08,12,01,37,17.70
2014,08,12,01,38,17.60
2014,08,12,01,39,17.60
2014,08,12,01,40,17.50
2014,08,12,01,41,17.50
2014,08,12,01,42,17.40
2014,08,12,01,43,17.40
2014,08,12,01,44,17.40
2014,08,12,01,45,17.30
2014,08,12,01,46,17.30
2014,08,12,01,47,17.30
2014,08,12,01,48,17.20
2014,08,12,01,49,17.20
2014,08,12,01,50,17.10
2014,08,12,01,51,17.00
2014,08,12,01,52,16.80
2014,08,12,01,53,16.60
2014,08,12,01,54,16.30
2014,08,12,01,55,16.10
2014,08,12,01,56,16.00
2014,08,12,01,57,15.80
2014,08,12,01,58,15.60
2014,08,12,01,59,15.50
2014,08,12,02,00,15.40
2014,08,12,02,01,15.30
2014,08,12,02,02,15.30
2014,08,12,02,03,15.30
2014,08,12,02,04,15.20
2014,08,12,02,05,15.20
2014,08,12,02,06,15.20
2014,08,12,02,07,15.30
2014,08,12,02,08,15.30
2014,08,12,02,09,15.30
2014,08,12,02,10,15.30
2014,08,12,02,11,15.30
2014,08,12,02,12,15.30
2014,08,12,02,13,15.30
2014,08,12,02,14,15.30
2014,08,12,02,15,15.30
2014,08,12,02,16,15.30
2014,08,12,02,17,15.40
2014,08,12,02,18,15.40
2014,08,12,02,19,15.40
2014,08,12,02,20,15.50
2014,08,12,02,21,15.50
2014,08,12,02,22,15.60
2014,08,12,02,23,15.60
2014,08,12,02,24,15.70
2014,08,12,02,25,15.70
2014,08,12,02,26,15.80
2014,08,12,02,27,15.80
2014,08,12,02,28,15.90
2014,08,12,02,29,15.90
2014,08,12,02,30,16.10
2014,08,12,02,31,16.10
2014,08,12,02,32,16.10
2014,08,12,02,33,16.10
2014,08,12,02,34,16.20
2014,08,12,02,35,16.20
2014,08,12,02,36,16.20
2014,08,12,02,37,16.30
2014,08,12,02,38,16.30
2014,08,12,02,39,16.40
2014,08,12,02,40,16.40
2014,08,12,02,41,16.40
2014,08,12,02,42,16.40
2014,08,12,02,43,16.40
2014,08,12,02,44,16.40
2014,08,12,02,45,16.40
2014,08,12,02,46,16.40
2014,08,12,02,47,16.40
2014,08,12,02,48,16.40
2014,08,12,02,49,16.40
2014,08,12,02,50,16.40
2014,08,12,02,51,16.40
2014,08,12,02,52,16.40
2014,08,12,02,53,16.40
2014,08,12,02,54,16.40
2014,08,12,02,55,16.40
2014,08,12,02,56,16.40
2014,08,12,02,57,16.40
2014,08,12,02,58,16.40
2014,08,12,02,59,16.40
2014,08,12,03,00,16.40
2014,08,12,03,01,16.40
2014,08,12,03,02,16.50
2014,08,12,03,03,16.60
2014,08,12,03,04,16.60
2014,08,12,03,05,16.60
2014,08,12,03,06,16.60
2014,08,12,03,07,16.70
2014,08,12,03,08,16.70
2014,08,12,03,09,16.70
2014,08,12,03,10,16.70
2014,08,12,03,11,16.70
2014,08,12,03,12,16.70
2014,08,12,03,13,16.70
2014,08,12,03,14,16.70
2014,08,12,03,15,16.70
2014,08,12,03,16,16.60
2014,08,12,03,17,16.60
2014,08,12,03,18,16.60
2014,08,12,03,19,16.60
2014,08,12,03,20,16.60
2014,08,12,03,21,16.60
2014,08,12,03,22,16.60
2014,08,12,03,23,16.60
2014,08,12,03,24,16.60
2014,08,12,03,25,16.60
2014,08,12,03,26,16.50
2014,08,12,03,27,16.40
2014,08,12,03,28,16.40
2014,08,12,03,29,16.40
2014,08,12,03,30,16.40
2014,08,12,03,31,16.40
2014,08,12,03,32,16.40
2014,08,12,03,33,16.40
2014,08,12,03,34,16.40
2014,08,12,03,35,16.40
2014,08,12,03,36,16.30
2014,08,12,03,37,16.30
2014,08,12,03,38,16.30
2014,08,12,03,39,16.30
2014,08,12,03,40,16.30
2014,08,12,03,41,16.30
2014,08,12,03,42,16.30
2014,08,12,03,43,16.30
2014,08,12,03,44,16.30
2014,08,12,03,45,16.30
2014,08,12,03,46,16.30
2014,08,12,03,47,16.30
2014,08,12,03,48,16.30
2014,08,12,03,49,16.30
2014,08,12,03,50,16.30
2014,08,12,03,51,16.30
2014,08,12,03,52,16.30
2014,08,12,03,53,16.30
2014,08,12,03,54,16.30
2014,08,12,03,55,16.30
2014,08,12,03,56,16.20
2014,08,12,03,57,16.10
2014,08,12,03,58,16.10
2014,08,12,03,59,16.10
2014,08,12,04,00,16.00
2014,08,12,04,01,15.90
2014,08,12,04,02,15.90
2014,08,12,04,03,15.90
2014,08,12,04,04,16.00
2014,08,12,04,05,16.10
2014,08,12,04,06,16.10
2014,08,12,04,07,16.10
2014,08,12,04,08,16.10
2014,08,12,04,09,16.10
2014,08,12,04,10,16.10
2014,08,12,04,11,16.10
2014,08,12,04,12,16.10
2014,08,12,04,13,16.00
2014,08,12,04,14,15.90
2014,08,12,04,15,15.90
2014,08,12,04,16,15.80
2014,08,12,04,17,15.80
2014,08,12,04,18,15.80
2014,08,12,04,19,15.80
2014,08,12,04,20,15.80
2014,08,12,04,21,15.80
2014,08,12,04,22,15.80
2014,08,12,04,23,15.80
2014,08,12,04,24,15.80
2014,08,12,04,25,15.80
2014,08,12,04,26,15.80
2014,08,12,04,27,15.80
2014,08,12,04,28,15.80
2014,08,12,04,29,15.80
2014,08,12,04,30,15.80
2014,08,12,04,31,15.80
2014,08,12,04,32,15.90
2014,08,12,04,33,15.90
2014,08,12,04,34,15.90
2014,08,12,04,35,16.00
2014,08,12,04,36,16.10
2014,08,12,04,37,16.10
2014,08,12,04,38,16.10
2014,08,12,04,39,16.20
2014,08,12,04,40,16.30
2014,08,12,04,41,16.40
2014,08,12,04,42,16.40
2014,08,12,04,43,16.60
2014,08,12,04,44,16.60
2014,08,12,04,45,16.70
2014,08,12,04,46,16.70
2014,08,12,04,47,16.70
2014,08,12,04,48,16.70
2014,08,12,04,49,16.80
2014,08,12,04,50,16.80
2014,08,12,04,51,16.90
2014,08,12,04,52,16.90
2014,08,12,04,53,16.90
2014,08,12,04,54,16.90
2014,08,12,04,55,17.00
2014,08,12,04,56,17.00
2014,08,12,04,57,17.00
2014,08,12,04,58,17.00
2014,08,12,04,59,17.10
2014,08,12,05,00,17.10
2014,08,12,05,01,17.10
2014,08,12,05,02,17.10
2014,08,12,05,03,17.10
2014,08,12,05,04,17.10
2014,08,12,05,05,17.10
2014,08,12,05,06,17.10
2014,08,12,05,07,17.10
2014,08,12,05,08,17.10
2014,08,12,05,09,17.10
2014,08,12,05,10,17.10
2014,08,12,05,11,17.10
2014,08,12,05,12,17.10
2014,08,12,05,13,17.10
2014,08,12,05,14,17.10
2014,08,12,05,15,17.10
2014,08,12,05,16,17.20
2014,08,12,05,17,17.20
2014,08,12,05,18,17.20
2014,08,12,05,19,17.30
2014,08,12,05,20,17.30
2014,08,12,05,21,17.30
2014,08,12,05,22,17.30
2014,08,12,05,23,17.30
2014,08,12,05,24,17.30
2014,08,12,05,25,17.30
2014,08,12,05,26,17.30
2014,08,12,05,27,17.30
2014,08,12,05,28,17.40
2014,08,12,05,29,17.40
2014,08,12,05,30,17.40
2014,08,12,05,31,17.40
2014,08,12,05,32,17.40
2014,08,12,05,33,17.40
2014,08,12,05,34,17.40
2014,08,12,05,35,17.40
2014,08,12,05,36,17.40
2014,08,12,05,37,17.30
2014,08,12,05,38,17.30
2014,08,12,05,39,17.30
2014,08,12,05,40,17.30
2014,08,12,05,41,17.20
2014,08,12,05,42,17.20
2014,08,12,05,43,17.10
2014,08,12,05,44,17.10
2014,08,12,05,45,17.10
2014,08,12,05,46,17.10
2014,08,12,05,47,17.00
2014,08,12,05,48,17.00
2014,08,12,05,49,17.00
2014,08,12,05,50,17.00
2014,08,12,05,51,16.90
2014,08,12,05,52,16.90
2014,08,12,05,53,16.90
2014,08,12,05,54,16.80
2014,08,12,05,55,16.80
2014,08,12,05,56,16.80
2014,08,12,05,57,16.80
2014,08,12,05,58,16.80
2014,08,12,05,59,16.80
2014,08,12,06,00,16.80
2014,08,12,06,01,16.80
2014,08,12,06,02,16.80
2014,08,12,06,03,16.90
2014,08,12,06,04,16.90
2014,08,12,06,05,16.90
2014,08,12,06,06,16.90
2014,08,12,06,07,16.90
2014,08,12,06,08,17.00
2014,08,12,06,09,17.00
2014,08,12,06,10,17.00
2014,08,12,06,11,17.00
2014,08,12,06,12,17.00
2014,08,12,06,13,17.00
2014,08,12,06,14,16.90
2014,08,12,06,15,16.90
2014,08,12,06,16,16.90
2014,08,12,06,17,16.90
2014,08,12,06,18,16.80
2014,08,12,06,19,16.80
2014,08,12,06,20,16.70
2014,08,12,06,21,16.60
2014,08,12,06,22,16.50
2014,08,12,06,23,16.40
2014,08,12,06,24,16.40
2014,08,12,06,25,16.30
2014,08,12,06,26,16.20
2014,08,12,06,27,16.10
2014,08,12,06,28,16.10
2014,08,12,06,29,16.10
2014,08,12,06,30,16.00
2014,08,12,06,31,15.90
2014,08,12,06,32,15.90
2014,08,12,06,33,15.80
2014,08,12,06,34,15.80
2014,08,12,06,35,15.80
2014,08,12,06,36,15.80
2014,08,12,06,37,15.80
2014,08,12,06,38,15.80
2014,08,12,06,39,15.80
2014,08,12,06,40,15.80
2014,08,12,06,41,15.80
2014,08,12,06,42,15.80
2014,08,12,06,43,15.80
2014,08,12,06,44,15.80
2014,08,12,06,45,15.80
2014,08,12,06,46,15.80
2014,08,12,06,47,15.80
2014,08,12,06,48,15.80
2014,08,12,06,49,15.90
2014,08,12,06,50,15.90
2014,08,12,06,51,15.90
2014,08,12,06,52,15.90
2014,08,12,06,53,16.00
2014,08,12,06,54,16.10
2014,08,12,06,55,16.10
2014,08,12,06,56,16.10
2014,08,12,06,57,16.10
2014,08,12,06,58,16.10
2014,08,12,06,59,16.10
2014,08,12,07,00,16.10
2014,08,12,07,01,16.20
2014,08,12,07,02,16.20
2014,08,12,07,03,16.20
2014,08,12,07,04,16.20
2014,08,12,07,05,16.20
2014,08,12,07,06,16.20
2014,08,12,07,07,16.20
2014,08,12,07,08,16.20
2014,08,12,07,09,16.10
2014,08,12,07,10,16.10
2014,08,12,07,11,16.10
2014,08,12,07,12,16.10
2014,08,12,07,13,16.10
2014,08,12,07,14,16.20
2014,08,12,07,15,16.20
2014,08,12,07,16,16.20
2014,08,12,07,17,16.20
2014,08,12,07,18,16.30
2014,08,12,07,19,16.30
2014,08,12,07,20,16.30
2014,08,12,07,21,16.30
2014,08,12,07,22,16.30
2014,08,12,07,23,16.20
2014,08,12,07,24,16.20
2014,08,12,07,25,16.20
2014,08,12,07,26,16.10
2014,08,12,07,27,16.10
2014,08,12,07,28,16.10
2014,08,12,07,29,16.10
2014,08,12,07,30,16.10
2014,08,12,07,31,16.10
2014,08,12,07,32,16.00
2014,08,12,07,33,15.90
2014,08,12,07,34,15.90
2014,08,12,07,35,15.90
2014,08,12,07,36,15.90
2014,08,12,07,37,15.90
2014,08,12,07,38,16.00
2014,08,12,07,39,16.10
2014,08,12,07,40,16.10
2014,08,12,07,41,16.10
2014,08,12,07,42,16.10
2014,08,12,07,43,16.10
2014,08,12,07,44,16.10
2014,08,12,07,45,16.10
2014,08,12,07,46,16.10
2014,08,12,07,47,16.10
2014,08,12,07,48,16.10
2014,08,12,07,49,16.10
2014,08,12,07,50,16.10
2014,08,12,07,51,16.10
2014,08,12,07,52,16.10
2014,08,12,07,53,16.20
2014,08,12,07,54,16.20
2014,08,12,07,55,16.20
2014,08,12,07,56,16.20
2014,08,12,07,57,16.30
2014,08,12,07,58,16.30
2014,08,12,07,59,16.30
2014,08,12,08,00,16.40
2014,08,12,08,01,16.40
2014,08,12,08,02,16.40
2014,08,12,08,03,16.40
2014,08,12,08,04,16.50
2014,08,12,08,05,16.60
2014,08,12,08,06,16.60
2014,08,12,08,07,16.60
2014,08,12,08,08,16.70
2014,08,12,08,09,16.70
2014,08,12,08,10,16.70
2014,08,12,08,11,16.70
2014,08,12,08,12,16.70
2014,08,12,08,13,16.70
2014,08,12,08,14,16.70
2014,08,12,08,15,16.70
2014,08,12,08,16,16.70
2014,08,12,08,17,16.70
2014,08,12,08,18,16.80
2014,08,12,08,19,16.80
2014,08,12,08,20,16.80
2014,08,12,08,21,16.80
2014,08,12,08,22,16.80
2014,08,12,08,23,16.70
2014,08,12,08,24,16.50
2014,08,12,08,25,16.30
2014,08,12,08,26,16.20
2014,08,12,08,27,16.10
2014,08,12,08,28,16.10
2014,08,12,08,29,16.00
2014,08,12,08,30,15.90
2014,08,12,08,31,15.90
2014,08,12,08,32,15.90
2014,08,12,08,33,15.80
2014,08,12,08,34,15.80
2014,08,12,08,35,15.80
2014,08,12,08,36,15.80
2014,08,12,08,37,15.80
2014,08,12,08,38,15.80
2014,08,12,08,39,15.80
2014,08,12,08,40,15.80
2014,08,12,08,41,15.80
2014,08,12,08,42,15.80
2014,08,12,08,43,15.80
2014,08,12,08,44,15.90
2014,08,12,08,45,15.90
2014,08,12,08,46,16.00
2014,08,12,08,47,16.10
2014,08,12,08,48,16.10
2014,08,12,08,49,16.10
2014,08,12,08,50,16.20
2014,08,12,08,51,16.20
2014,08,12,08,52,16.30
2014,08,12,08,53,16.30
2014,08,12,08,54,16.30
2014,08,12,08,55,16.30
2014,08,12,08,56,16.30
2014,08,12,08,57,16.30
2014,08,12,08,58,16.30
2014,08,12,08,59,16.30
2014,08,12,09,00,16.20
2014,08,12,09,01,16.10
2014,08,12,09,02,16.10
2014,08,12,09,03,16.10
2014,08,12,09,04,16.10
2014,08,12,09,05,16.10
2014,08,12,09,06,16.10
2014,08,12,09,07,16.00
2014,08,12,09,08,15.90
2014,08,12,09,09,15.90
2014,08,12,09,10,16.00
2014,08,12,09,11,16.10
2014,08,12,09,12,16.10
2014,08,12,09,13,16.20
2014,08,12,09,14,16.20
2014,08,12,09,15,16.30
2014,08,12,09,16,16.30
2014,08,12,09,17,16.40
2014,08,12,09,18,16.50
2014,08,12,09,19,16.60
2014,08,12,09,20,16.70
2014,08,12,09,21,16.80
2014,08,12,09,22,16.90
2014,08,12,09,23,17.00
2014,08,12,09,24,17.00
2014,08,12,09,25,17.10
2014,08,12,09,26,17.20
2014,08,12,09,27,17.30
2014,08,12,09,28,17.30
2014,08,12,09,29,17.40
2014,08,12,09,30,17.50
2014,08,12,09,31,17.50
2014,08,12,09,32,17.60
2014,08,12,09,33,17.70
2014,08,12,09,34,17.80
2014,08,12,09,35,17.90
2014,08,12,09,36,17.90
2014,08,12,09,37,18.10
2014,08,12,09,38,18.10
2014,08,12,09,39,18.20
2014,08,12,09,40,18.30
2014,08,12,09,41,18.40
2014,08,12,09,42,18.50
2014,08,12,09,43,18.50
2014,08,12,09,44,18.60
2014,08,12,09,45,18.70
2014,08,12,09,46,18.80
2014,08,12,09,47,18.90
2014,08,12,09,48,18.90
2014,08,12,09,49,19.10
2014,08,12,09,50,19.10
2014,08,12,09,51,19.20
2014,08,12,09,52,19.30
2014,08,12,09,53,19.40
2014,08,12,09,54,19.40
2014,08,12,09,55,19.50
2014,08,12,09,56,19.60
2014,08,12,09,57,19.60
2014,08,12,09,58,19.70
2014,08,12,09,59,19.70
2014,08,12,10,00,19.70
2014,08,12,10,01,19.70
2014,08,12,10,02,19.80
2014,08,12,10,03,19.80
2014,08,12,10,04,19.80
2014,08,12,10,05,19.70
2014,08,12,10,06,19.70
2014,08,12,10,07,19.60
2014,08,12,10,08,19.50
2014,08,12,10,09,19.40
2014,08,12,10,10,19.30
2014,08,12,10,11,19.20
2014,08,12,10,12,19.20
2014,08,12,10,13,19.10
2014,08,12,10,14,19.10
2014,08,12,10,15,19.10
2014,08,12,10,16,19.10
2014,08,12,10,17,19.10
2014,08,12,10,18,19.10
2014,08,12,10,19,19.10
2014,08,12,10,20,19.10
2014,08,12,10,21,19.10
2014,08,12,10,22,18.90
2014,08,12,10,23,18.90
2014,08,12,10,24,19.00
2014,08,12,10,25,19.10
2014,08,12,10,26,19.10
2014,08,12,10,27,19.10
2014,08,12,10,28,19.10
2014,08,12,10,29,19.10
2014,08,12,10,30,19.20
2014,08,12,10,31,19.20
2014,08,12,10,32,19.30
2014,08,12,10,33,19.40
2014,08,12,10,34,19.40
2014,08,12,10,35,19.50
2014,08,12,10,36,19.50
2014,08,12,10,37,19.60
2014,08,12,10,38,19.60
2014,08,12,10,39,19.70
2014,08,12,10,40,19.70
2014,08,12,10,41,19.80
2014,08,12,10,42,19.80
2014,08,12,10,43,19.90
2014,08,12,10,44,19.90
2014,08,12,10,45,19.90
2014,08,12,10,46,20.00
2014,08,12,10,47,20.10
2014,08,12,10,48,20.10
2014,08,12,10,49,20.20
2014,08,12,10,50,20.20
2014,08,12,10,51,20.20
2014,08,12,10,52,20.20
2014,08,12,10,53,20.30
2014,08,12,10,54,20.30
2014,08,12,10,55,20.40
2014,08,12,10,56,20.40
2014,08,12,10,57,20.50
2014,08,12,10,58,20.50
2014,08,12,10,59,20.60
2014,08,12,11,00,20.60
2014,08,12,11,01,20.70
2014,08,12,11,02,20.80
2014,08,12,11,03,20.80
2014,08,12,11,04,20.90
2014,08,12,11,05,21.00
2014,08,12,11,06,21.00
2014,08,12,11,07,21.10
2014,08,12,11,08,21.10
2014,08,12,11,09,21.20
2014,08,12,11,10,21.20
2014,08,12,11,11,21.30
2014,08,12,11,12,21.30
2014,08,12,11,13,21.30
2014,08,12,11,14,21.30
2014,08,12,11,15,21.10
2014,08,12,11,16,20.90
2014,08,12,11,17,20.70
2014,08,12,11,18,20.50
2014,08,12,11,19,20.30
2014,08,12,11,20,20.00
2014,08,12,11,21,19.80
2014,08,12,11,22,19.50
2014,08,12,11,23,19.30
2014,08,12,11,24,19.00
2014,08,12,11,25,18.90
2014,08,12,11,26,18.70
2014,08,12,11,27,18.50
2014,08,12,11,28,18.40
2014,08,12,11,29,18.30
2014,08,12,11,30,18.20
2014,08,12,11,31,18.20
2014,08,12,11,32,18.10
2014,08,12,11,33,18.10
2014,08,12,11,34,18.00
2014,08,12,11,35,17.90
2014,08,12,11,36,17.90
2014,08,12,11,37,18.00
2014,08,12,11,38,18.10
2014,08,12,11,39,18.10
2014,08,12,11,40,18.10
2014,08,12,11,41,18.20
2014,08,12,11,42,18.20
2014,08,12,11,43,18.30
2014,08,12,11,44,18.40
2014,08,12,11,45,18.50
2014,08,12,11,46,18.60
2014,08,12,11,47,18.60
2014,08,12,11,48,18.70
2014,08,12,11,49,18.90
2014,08,12,11,50,18.90
2014,08,12,11,51,19.10
2014,08,12,11,52,19.10
2014,08,12,11,53,19.20
2014,08,12,11,54,19.30
2014,08,12,11,55,19.50
2014,08,12,11,56,19.60
2014,08,12,11,57,19.70
2014,08,12,11,58,19.80
2014,08,12,11,59,19.90
2014,08,12,12,00,20.00
2014,08,12,12,01,20.10
2014,08,12,12,02,20.20
2014,08,12,12,03,20.30
2014,08,12,12,04,20.40
2014,08,12,12,05,20.50
2014,08,12,12,06,20.50
2014,08,12,12,07,20.60
2014,08,12,12,08,20.70
2014,08,12,12,09,20.80
2014,08,12,12,10,20.80
2014,08,12,12,11,20.90
2014,08,12,12,12,21.00
2014,08,12,12,13,21.10
2014,08,12,12,14,21.20
2014,08,12,12,15,21.30
2014,08,12,12,16,21.40
2014,08,12,12,17,21.50
2014,08,12,12,18,21.60
2014,08,12,12,19,21.60
2014,08,12,12,20,21.70
2014,08,12,12,21,21.70
2014,08,12,12,22,21.80
2014,08,12,12,23,21.90
2014,08,12,12,24,21.90
2014,08,12,12,25,22.00
2014,08,12,12,26,22.10
2014,08,12,12,27,22.10
2014,08,12,12,28,22.20
2014,08,12,12,29,22.30
2014,08,12,12,30,22.40
2014,08,12,12,31,22.50
2014,08,12,12,32,22.60
2014,08,12,12,33,22.70
2014,08,12,12,34,22.80
2014,08,12,12,35,22.90
2014,08,12,12,36,23.00
2014,08,12,12,37,23.20
2014,08,12,12,38,23.30
2014,08,12,12,39,23.40
2014,08,12,12,40,23.50
2014,08,12,12,41,23.70
2014,08,12,12,42,23.70
2014,08,12,12,43,23.70
2014,08,12,12,44,23.80
2014,08,12,12,45,23.80
2014,08,12,12,46,23.90
2014,08,12,12,47,23.90
2014,08,12,12,48,24.00
2014,08,12,12,49,24.10
2014,08,12,12,50,24.10
2014,08,12,12,51,24.10
2014,08,12,12,52,24.30
2014,08,12,12,53,24.40
2014,08,12,12,54,24.50
2014,08,12,12,55,24.50
2014,08,12,12,56,24.50
2014,08,12,12,57,24.40
2014,08,12,12,58,24.20
2014,08,12,12,59,24.00
2014,08,12,13,00,23.80
2014,08,12,13,01,23.50
2014,08,12,13,02,23.30
2014,08,12,13,03,23.10
2014,08,12,13,04,22.90
2014,08,12,13,05,22.80
2014,08,12,13,06,22.70
2014,08,12,13,07,22.60
2014,08,12,13,08,22.40
2014,08,12,13,09,22.30
2014,08,12,13,10,22.30
2014,08,12,13,11,22.20
2014,08,12,13,12,22.10
2014,08,12,13,13,22.10
2014,08,12,13,14,22.10
2014,08,12,13,15,22.10
2014,08,12,13,16,22.10
2014,08,12,13,17,22.10
2014,08,12,13,18,22.10
2014,08,12,13,19,22.10
2014,08,12,13,20,22.10
2014,08,12,13,21,22.10
2014,08,12,13,22,22.00
2014,08,12,13,23,22.00
2014,08,12,13,24,22.00
2014,08,12,13,25,22.00
2014,08,12,13,26,22.00
2014,08,12,13,27,21.90
2014,08,12,13,28,21.90
2014,08,12,13,29,21.90
2014,08,12,13,30,21.80
2014,08,12,13,31,21.70
2014,08,12,13,32,21.70
2014,08,12,13,33,21.60
2014,08,12,13,34,21.50
2014,08,12,13,35,21.40
2014,08,12,13,36,21.30
2014,08,12,13,37,21.30
2014,08,12,13,38,21.30
2014,08,12,13,39,21.20
2014,08,12,13,40,21.20
2014,08,12,13,41,21.20
2014,08,12,13,42,21.20
2014,08,12,13,43,21.20
2014,08,12,13,44,21.20
2014,08,12,13,45,21.20
2014,08,12,13,46,21.20
2014,08,12,13,47,21.20
2014,08,12,13,48,21.20
2014,08,12,13,49,21.20
2014,08,12,13,50,21.20
2014,08,12,13,51,21.20
2014,08,12,13,52,21.30
2014,08,12,13,53,21.30
2014,08,12,13,54,21.30
2014,08,12,13,55,21.30
2014,08,12,13,56,21.40
2014,08,12,13,57,21.40
2014,08,12,13,58,21.50
2014,08,12,13,59,21.60
2014,08,12,14,00,21.60
2014,08,12,14,01,21.60
2014,08,12,14,02,21.70
2014,08,12,14,03,21.70
2014,08,12,14,04,21.80
2014,08,12,14,05,21.80
2014,08,12,14,06,21.90
2014,08,12,14,07,22.00
2014,08,12,14,08,22.00
2014,08,12,14,09,22.10
2014,08,12,14,10,22.20
2014,08,12,14,11,22.20
2014,08,12,14,12,22.20
2014,08,12,14,13,22.30
2014,08,12,14,14,22.30
2014,08,12,14,15,22.30
2014,08,12,14,16,22.40
2014,08,12,14,17,22.40
2014,08,12,14,18,22.50
2014,08,12,14,19,22.60
2014,08,12,14,20,22.60
2014,08,12,14,21,22.70
2014,08,12,14,22,22.80
2014,08,12,14,23,22.80
2014,08,12,14,24,22.90
2014,08,12,14,25,22.90
2014,08,12,14,26,22.90
2014,08,12,14,27,23.00
2014,08,12,14,28,23.10
2014,08,12,14,29,23.10
2014,08,12,14,30,23.10
2014,08,12,14,31,23.20
2014,08,12,14,32,23.20
2014,08,12,14,33,23.20
2014,08,12,14,34,23.20
2014,08,12,14,35,23.20
2014,08,12,14,36,23.10
2014,08,12,14,37,23.00
2014,08,12,14,38,22.90
2014,08,12,14,39,22.90
2014,08,12,14,40,22.90
2014,08,12,14,41,22.90
2014,08,12,14,42,22.90
2014,08,12,14,43,22.90
2014,08,12,14,44,22.90
2014,08,12,14,45,22.90
2014,08,12,14,46,22.90
2014,08,12,14,47,22.90
2014,08,12,14,48,22.90
2014,08,12,14,49,22.80
2014,08,12,14,50,22.80
2014,08,12,14,51,22.70
2014,08,12,14,52,22.70
2014,08,12,14,53,22.60
2014,08,12,14,54,22.50
2014,08,12,14,55,22.50
2014,08,12,14,56,22.50
2014,08,12,14,57,22.40
2014,08,12,14,58,22.40
2014,08,12,14,59,22.40
2014,08,12,15,00,22.30
2014,08,12,15,01,22.20
2014,08,12,15,02,22.20
2014,08,12,15,03,22.10
2014,08,12,15,04,22.00
2014,08,12,15,05,22.00
2014,08,12,15,06,21.90
2014,08,12,15,07,21.80
2014,08,12,15,08,21.80
2014,08,12,15,09,21.70
2014,08,12,15,10,21.60
2014,08,12,15,11,21.60
2014,08,12,15,12,21.60
2014,08,12,15,13,21.50
2014,08,12,15,14,21.40
2014,08,12,15,15,21.40
2014,08,12,15,16,21.40
2014,08,12,15,17,21.40
2014,08,12,15,18,21.30
2014,08,12,15,19,21.30
2014,08,12,15,20,21.30
2014,08,12,15,21,21.30
2014,08,12,15,22,21.30
2014,08,12,15,23,21.30
2014,08,12,15,24,21.30
2014,08,12,15,25,21.30
2014,08,12,15,26,21.30
2014,08,12,15,27,21.30
2014,08,12,15,28,21.30
2014,08,12,15,29,21.40
2014,08,12,15,30,21.50
2014,08,12,15,31,21.60
2014,08,12,15,32,21.60
2014,08,12,15,33,21.60
2014,08,12,15,34,21.70
2014,08,12,15,35,21.70
2014,08,12,15,36,21.80
2014,08,12,15,37,21.80
2014,08,12,15,38,21.80
2014,08,12,15,39,21.80
2014,08,12,15,40,21.80
2014,08,12,15,41,21.90
2014,08,12,15,42,21.90
2014,08,12,15,43,21.90
2014,08,12,15,44,21.90
2014,08,12,15,45,22.00
2014,08,12,15,46,22.00
2014,08,12,15,47,22.10
2014,08,12,15,48,22.20
2014,08,12,15,49,22.20
2014,08,12,15,50,22.20
2014,08,12,15,51,22.20
2014,08,12,15,52,22.20
2014,08,12,15,53,22.20
2014,08,12,15,54,22.20
2014,08,12,15,55,22.30
2014,08,12,15,56,22.30
2014,08,12,15,57,22.20
2014,08,12,15,58,22.20
2014,08,12,15,59,22.20
2014,08,12,16,00,22.20
2014,08,12,16,01,22.20
2014,08,12,16,02,22.20
2014,08,12,16,03,22.10
2014,08,12,16,04,22.10
2014,08,12,16,05,22.10
2014,08,12,16,06,22.10
2014,08,12,16,07,22.10
2014,08,12,16,08,22.10
2014,08,12,16,09,22.00
2014,08,12,16,10,22.00
2014,08,12,16,11,21.90
2014,08,12,16,12,21.80
2014,08,12,16,13,21.70
2014,08,12,16,14,21.70
2014,08,12,16,15,21.70
2014,08,12,16,16,21.80
2014,08,12,16,17,21.80
2014,08,12,16,18,21.80
2014,08,12,16,19,21.80
2014,08,12,16,20,21.80
2014,08,12,16,21,21.80
2014,08,12,16,22,21.90
2014,08,12,16,23,21.90
2014,08,12,16,24,21.90
2014,08,12,16,25,22.00
2014,08,12,16,26,22.00
2014,08,12,16,27,22.00
2014,08,12,16,28,21.90
2014,08,12,16,29,21.80
2014,08,12,16,30,21.80
2014,08,12,16,31,21.80
2014,08,12,16,32,21.80
2014,08,12,16,33,21.90
2014,08,12,16,34,21.90
2014,08,12,16,35,22.00
2014,08,12,16,36,22.10
2014,08,12,16,37,22.20
2014,08,12,16,38,22.30
2014,08,12,16,39,22.40
2014,08,12,16,40,22.60
2014,08,12,16,41,22.70
2014,08,12,16,42,22.70
2014,08,12,16,43,22.80
2014,08,12,16,44,22.90
2014,08,12,16,45,22.90
2014,08,12,16,46,22.90
2014,08,12,16,47,22.90
2014,08,12,16,48,22.90
2014,08,12,16,49,23.00
2014,08,12,16,50,23.00
2014,08,12,16,51,22.90
2014,08,12,16,52,22.90
2014,08,12,16,53,22.90
2014,08,12,16,54,22.90
2014,08,12,16,55,22.90
2014,08,12,16,56,23.00
2014,08,12,16,57,23.10
2014,08,12,16,58,23.10
2014,08,12,16,59,23.20
2014,08,12,17,00,23.20
2014,08,12,17,01,23.30
2014,08,12,17,02,23.30
2014,08,12,17,03,23.40
2014,08,12,17,04,23.50
2014,08,12,17,05,23.60
2014,08,12,17,06,23.60
2014,08,12,17,07,23.70
2014,08,12,17,08,23.70
2014,08,12,17,09,23.80
2014,08,12,17,10,23.90
2014,08,12,17,11,24.00
2014,08,12,17,12,24.10
2014,08,12,17,13,24.20
2014,08,12,17,14,24.30
2014,08,12,17,15,24.30
2014,08,12,17,16,24.30
2014,08,12,17,17,24.30
2014,08,12,17,18,24.30
2014,08,12,17,19,24.40